TimeCST,TemperatureF,Dew PointF,Humidity,Sea Level PressureIn,VisibilityMPH,Wind Direction,Wind SpeedMPH,Gust SpeedMPH,PrecipitationIn,Events,Conditions,WindDirDegrees,DateUTC
12:15 AM,25.7,17.4,71,30.09,10.0,NNW,8.1,-,N/A,,Clear,330,2012-12-31 06:15:00
12:35 AM,25.7,17.4,71,30.09,10.0,NW,9.2,-,N/A,,Mostly Cloudy,320,2012-12-31 06:35:00
12:55 AM,25.7,17.4,71,30.09,10.0,NW,9.2,-,N/A,,Mostly Cloudy,320,2012-12-31 06:55:00
1:15 AM,25.5,17.6,72,30.09,10.0,NW,8.1,-,N/A,,Mostly Cloudy,320,2012-12-31 07:15:00
1:35 AM,25.3,17.4,72,30.10,10.0,NW,8.1,-,N/A,,Overcast,320,2012-12-31 07:35:00
1:55 AM,25.2,16.9,71,30.11,10.0,NW,8.1,-,N/A,,Mostly Cloudy,320,2012-12-31 07:55:00
2:15 AM,24.8,17.2,73,30.13,10.0,NW,9.2,-,N/A,,Mostly Cloudy,320,2012-12-31 08:15:00
2:35 AM,24.6,17.2,74,30.12,10.0,NNW,10.4,-,N/A,,Scattered Clouds,330,2012-12-31 08:35:00
2:55 AM,24.3,16.9,73,30.11,10.0,NNW,9.2,-,N/A,,Scattered Clouds,330,2012-12-31 08:55:00
3:15 AM,24.1,16.9,74,30.13,10.0,North,5.8,-,N/A,,Mostly Cloudy,350,2012-12-31 09:15:00
3:35 AM,23.9,16.7,74,30.13,10.0,NNW,5.8,-,N/A,,Overcast,340,2012-12-31 09:35:00
3:55 AM,23.7,16.9,75,30.13,10.0,NNW,5.8,-,N/A,,Overcast,340,2012-12-31 09:55:00
4:15 AM,23.7,17.2,76,30.11,10.0,North,4.6,-,N/A,,Overcast,350,2012-12-31 10:15:00
4:35 AM,23.4,16.5,75,30.12,10.0,North,5.8,-,N/A,,Overcast,350,2012-12-31 10:35:00
4:55 AM,22.6,15.8,75,30.12,10.0,North,6.9,-,N/A,,Overcast,350,2012-12-31 10:55:00
5:15 AM,22.1,15.6,76,30.13,10.0,North,9.2,-,N/A,,Overcast,360,2012-12-31 11:15:00
5:35 AM,21.7,15.4,77,30.13,10.0,North,9.2,-,N/A,,Overcast,350,2012-12-31 11:35:00
5:55 AM,21.2,15.4,78,30.13,10.0,North,6.9,-,N/A,,Overcast,350,2012-12-31 11:55:00
6:15 AM,20.8,15.3,79,30.14,10.0,North,6.9,-,N/A,,Overcast,360,2012-12-31 12:15:00
6:35 AM,20.5,14.9,79,30.15,10.0,North,5.8,-,N/A,,Overcast,350,2012-12-31 12:35:00
6:55 AM,20.3,15.8,83,30.14,10.0,North,6.9,-,N/A,,Overcast,350,2012-12-31 12:55:00
7:15 AM,19.9,15.3,82,30.16,10.0,North,8.1,-,N/A,,Overcast,350,2012-12-31 13:15:00
7:35 AM,19.6,15.3,83,30.16,10.0,North,6.9,-,N/A,,Overcast,350,2012-12-31 13:35:00
7:55 AM,19.2,14.9,83,30.16,10.0,North,6.9,-,N/A,,Overcast,360,2012-12-31 13:55:00
8:15 AM,18.9,14.9,85,30.16,10.0,North,8.1,-,N/A,,Overcast,360,2012-12-31 14:15:00
8:35 AM,18.9,15.3,86,30.17,10.0,North,8.1,-,N/A,,Overcast,10,2012-12-31 14:35:00
8:55 AM,18.9,15.4,87,30.17,10.0,North,6.9,-,N/A,,Overcast,360,2012-12-31 14:55:00
9:15 AM,19.4,15.8,86,30.17,7.0,North,6.9,-,N/A,,Overcast,10,2012-12-31 15:15:00
9:35 AM,19.9,16.7,87,30.17,7.0,NNE,9.2,-,N/A,,Overcast,20,2012-12-31 15:35:00
9:55 AM,20.3,17.1,87,30.19,7.0,North,6.9,-,N/A,,Overcast,360,2012-12-31 15:55:00
10:15 AM,20.7,17.4,87,30.18,7.0,NNE,8.1,-,N/A,,Overcast,20,2012-12-31 16:15:00
10:35 AM,21.0,17.6,87,30.20,7.0,NNE,5.8,-,N/A,,Overcast,20,2012-12-31 16:35:00
10:55 AM,21.2,17.8,87,30.20,7.0,NNE,8.1,-,N/A,,Overcast,30,2012-12-31 16:55:00
11:15 AM,21.9,18.3,86,30.19,7.0,NNE,8.1,-,N/A,,Overcast,30,2012-12-31 17:15:00
11:35 AM,22.3,18.5,85,30.20,7.0,NNE,5.8,-,N/A,,Overcast,20,2012-12-31 17:35:00
11:55 AM,22.5,18.7,85,30.20,7.0,NNE,6.9,-,N/A,,Overcast,30,2012-12-31 17:55:00
12:15 PM,22.6,18.7,85,30.20,7.0,NNE,4.6,-,N/A,,Overcast,30,2012-12-31 18:15:00
12:35 PM,22.8,19.0,85,30.18,7.0,North,5.8,-,N/A,,Overcast,10,2012-12-31 18:35:00
12:55 PM,23.2,19.2,85,30.16,7.0,NNE,8.1,-,N/A,,Overcast,30,2012-12-31 18:55:00
1:15 PM,23.5,19.4,84,30.14,7.0,NNE,9.2,-,N/A,,Overcast,30,2012-12-31 19:15:00
1:35 PM,23.9,19.0,82,30.14,10.0,NNE,9.2,-,N/A,,Overcast,30,2012-12-31 19:35:00
1:55 PM,23.9,19.0,82,30.13,10.0,NNE,9.2,-,N/A,,Overcast,30,2012-12-31 19:55:00
2:15 PM,23.9,18.9,81,30.13,10.0,NNE,8.1,-,N/A,,Overcast,20,2012-12-31 20:15:00
2:35 PM,24.1,18.5,79,30.13,10.0,North,10.4,-,N/A,,Overcast,10,2012-12-31 20:35:00
2:55 PM,23.7,18.3,80,30.13,10.0,NNE,10.4,-,N/A,,Overcast,20,2012-12-31 20:55:00
3:15 PM,23.4,18.3,81,30.12,10.0,North,9.2,-,N/A,,Overcast,10,2012-12-31 21:15:00
3:35 PM,23.4,18.7,82,30.13,10.0,North,6.9,-,N/A,,Overcast,360,2012-12-31 21:35:00
3:55 PM,23.4,18.5,82,30.14,10.0,NNE,8.1,-,N/A,,Overcast,20,2012-12-31 21:55:00
4:15 PM,23.0,18.5,83,30.14,10.0,NNE,6.9,-,N/A,,Overcast,20,2012-12-31 22:15:00
4:35 PM,23.0,18.7,84,30.15,5.0,NNE,5.8,-,N/A,Snow,Light Snow,20,2012-12-31 22:35:00
4:55 PM,23.0,19.2,85,30.16,1.8,North,4.6,-,N/A,Snow,Light Snow,10,2012-12-31 22:55:00
5:15 PM,22.6,19.9,89,30.16,1.8,NNE,4.6,-,N/A,Snow,Light Snow,20,2012-12-31 23:15:00
5:35 PM,22.6,20.3,91,30.17,1.8,North,5.8,-,N/A,Snow,Light Snow,10,2012-12-31 23:35:00
5:55 PM,22.6,20.3,91,30.18,2.0,North,4.6,-,N/A,Snow,Light Snow,10,2012-12-31 23:55:00
6:15 PM,22.6,20.3,91,30.18,5.0,NNE,3.5,-,N/A,Snow,Light Snow,20,2013-01-01 00:15:00
6:35 PM,22.1,19.6,90,30.18,7.0,NNE,5.8,-,N/A,,Overcast,20,2013-01-01 00:35:00
6:55 PM,22.5,18.0,83,30.18,10.0,North,6.9,-,N/A,,Overcast,10,2013-01-01 00:55:00
7:15 PM,22.1,16.7,80,30.19,10.0,NNE,6.9,-,N/A,,Overcast,20,2013-01-01 01:15:00
7:35 PM,21.9,15.8,77,30.19,10.0,North,5.8,-,N/A,,Overcast,10,2013-01-01 01:35:00
7:55 PM,21.7,15.8,78,30.19,10.0,North,8.1,-,N/A,,Overcast,10,2013-01-01 01:55:00
8:35 PM,21.2,15.3,78,30.19,10.0,North,6.9,-,N/A,,Overcast,10,2013-01-01 02:35:00
9:15 PM,20.8,15.3,79,30.19,10.0,North,8.1,-,N/A,,Overcast,10,2013-01-01 03:15:00
9:35 PM,20.7,14.9,78,30.19,10.0,North,6.9,-,N/A,,Overcast,360,2013-01-01 03:35:00
9:55 PM,20.3,14.9,80,30.20,10.0,North,6.9,-,N/A,,Overcast,360,2013-01-01 03:55:00
10:15 PM,19.6,14.7,81,30.20,10.0,North,6.9,-,N/A,,Mostly Cloudy,10,2013-01-01 04:15:00
10:35 PM,19.2,14.9,83,30.21,10.0,North,5.8,-,N/A,,Overcast,10,2013-01-01 04:35:00
10:55 PM,18.9,14.7,84,30.22,10.0,North,6.9,-,N/A,,Mostly Cloudy,10,2013-01-01 04:55:00
11:15 PM,18.1,13.5,82,30.22,10.0,North,8.1,-,N/A,,Scattered Clouds,10,2013-01-01 05:15:00
11:35 PM,17.6,12.9,82,30.23,10.0,North,5.8,-,N/A,,Scattered Clouds,10,2013-01-01 05:35:00
11:55 PM,17.2,11.8,79,30.22,10.0,North,6.9,-,N/A,,Scattered Clouds,360,2013-01-01 05:55:00